Location: ???????
(56.2167°N, 38.0500°E)
Time: 07:27:53
(UTC+00:00)

Cosmos 2181 Rocket - Pass Details

Date: 19 May 2025
Orbit: 952 x 1013 km, 82.9° (Epoch: 23 June)

Event Time Altitude Azimuth Distance (km) Brightness Sun altitude
Exits shadow 19:13:56 - 180° (S) 3,075 6.1 -9.0°
Reaches altitude 10° 19:14:51 10° 179° (S) 2,733 5.8 -9.1°
Maximum altitude 19:21:05 72° 97° (E) 1,048 4.1 -9.5°
Drops below altitude 10° 19:27:28 10° 14° (NNE) 2,792 7.1 -9.9°
Sets 19:30:02 0° 13° (NNE) 3,752 7.9 -10.1°
